QPF
0.00 0.00 0.00 0.00 0.00 0.00 0.00 0.00 0.00 0.00 0.00 0.00 0.00 0.00 0.00 0.00 0.00 0.00 0.00 0.00 0.00 0.00 0.00 0.00 0.00 0.00 0.00 0.00 0.00 0.00 0.00 0.00 0.00 0.00 0.00 0.00 0.00 0.00 0.00 0.00 0.00 0.00 0.00 0.00 0.00 0.00 0.00
0.00 0.00 0.00 0.00 0.00 0.00 0.00 0.00 0.00 0.00 0.00 0.00 0.00 0.00 0.00 0.00 0.00 0.00 0.00 0.00 0.00 0.00 0.00 0.00 0.00 0.00 0.00 0.00 0.00 0.00 0.00 0.00 0.00 0.00 0.00 0.00 0.00 0.00 0.00 0.00 0.00 0.00 0.00 0.00 0.00 0.00 0.00
0.00 0.00 0.00 0.00 0.00 0.00 0.00 0.00 0.00 0.00 0.00 0.00 0.00 0.00 0.00 0.00 0.00 0.00 0.00 0.00 0.00 0.00 0.00 0.00 0.00 0.00 0.00 0.00 0.00 0.00 0.00 0.00 0.00 0.00 0.00 0.00 0.00 0.00 0.00 0.00 0.00 0.00 0.00 0.00 0.00 0.00 0.00
0.00 0.00 0.00 0.00 0.00 0.00 0.00 0.00 0.00 0.00 0.00 0.00 0.00 0.00 0.00 0.00 0.00 0.00 0.00 0.00 0.00 0.00 0.00 0.00 0.00 0.00 0.00 0.00 0.00 0.00 0.00 0.00 0.00 0.00 0.00 0.00 0.00 0.00 0.00 0.00 0.00 0.00 0.00 0.00 0.00 0.00 0.00
0.00 0.00 0.00 0.00 0.00 0.00 0.00 0.00 0.00 0.00 0.00 0.00 0.00 0.00 0.00 0.00 0.00 0.00 0.00 0.00 0.00 0.00 0.00 0.00 0.00 0.00 0.00 0.00 0.00 0.00 0.00 0.00 0.00 0.00 0.00 0.00 0.00 0.00 0.00 0.00 0.00 0.00 0.00 0.00 0.00 0.00 0.00
0.00 0.00 0.00 0.00 0.00 0.00 0.00 0.00 0.00 0.00 0.00 0.00 0.00 0.00 0.00 0.00 0.00 0.00 0.00 0.00 0.00 0.00 0.00 0.00 0.00 0.00 0.00 0.00 0.00 0.00 0.00 0.00 0.00 0.00 0.00 0.00 0.00 0.00 0.00 0.00 0.00 0.00 0.00 0.00 0.00 0.00 0.00
0.00 0.00 0.00 0.00 0.00 0.00 0.00 0.00 0.00 0.00 0.00 0.00 0.00 0.00 0.00 0.00 0.00 0.00 0.00 0.00 0.00 0.00 0.00 0.00 0.00 0.00 0.00 0.00 0.00 0.00 0.00 0.00 0.00 0.00 0.00 0.00 0.00 0.00 0.00 0.00 0.00 0.00 0.00 0.00 0.00 0.00 0.00
0.00 0.00 0.00 0.00 0.00 0.00 0.00 0.00 0.00 0.00 0.00 0.00 0.00 0.00 0.00 0.00 0.00 0.00 0.00 0.00 0.00 0.00 0.00 0.00 0.00 0.00 0.00 0.00 0.00 0.00 0.00 0.00 0.00 0.00 0.00 0.00 0.00 0.00 0.00 0.00 0.00 0.00 0.00 0.00 0.00 0.00 0.00
0.00 0.00 0.00 0.00 0.00 0.00 0.00 0.00 0.00 0.00 0.00 0.00 0.00 0.00 0.00 0.00 0.00 0.00 0.00 0.00 0.00 0.00 0.00 0.00 0.00 0.00 0.00 0.00 0.00 0.00 0.00 0.00 0.00 0.00 0.00 0.00 0.00 0.00 0.00 0.00 0.00 0.00 0.00 0.00 0.00 0.00 0.00
0.01 0.00 0.00 0.00 0.00 0.00 0.00 0.00 0.00 0.00 0.00 0.00 0.00 0.00 0.00 0.00 0.00 0.00 0.00 0.00 0.00 0.00 0.00 0.00 0.00 0.00 0.00 0.00 0.00 0.00 0.00 0.00 0.00 0.00 0.00 0.00 0.00 0.00 0.00 0.00 0.00 0.00 0.00 0.00 0.00 0.00 0.00
0.00 0.01 0.01 0.01 0.01 0.01 0.00 0.00 0.00 0.00 0.00 0.00 0.00 0.00 0.00 0.00 0.00 0.00 0.00 0.00 0.00 0.00 0.00 0.00 0.00 0.00 0.00 0.00 0.00 0.00 0.00 0.00 0.00 0.00 0.00 0.00 0.00 0.00 0.00 0.00 0.00 0.00 0.00 0.00 0.00 0.00 0.00
0.00 0.00 0.00 0.01 0.01 0.01 0.01 0.00 0.00 0.00 0.00 0.00 0.00 0.00 0.00 0.00 0.00 0.00 0.00 0.00 0.00 0.00 0.00 0.00 0.00 0.00 0.00 0.00 0.00 0.00 0.00 0.00 0.00 0.00 0.00 0.00 0.00 0.00 0.00 0.00 0.00 0.00 0.00 0.00 0.00 0.00 0.00
0.00 0.00 0.00 0.00 0.01 0.02 0.01 0.01 0.00 0.00 0.00 0.00 0.00 0.00 0.00 0.00 0.00 0.00 0.00 0.00 0.00 0.00 0.00 0.00 0.00 0.00 0.00 0.00 0.00 0.00 0.00 0.00 0.00 0.00 0.00 0.00 0.00 0.00 0.00 0.00 0.00 0.00 0.00 0.01 0.00 0.00 0.00
0.00 0.00 0.00 0.00 0.00 0.00 0.00 0.00 0.00 0.01 0.01 0.00 0.00 0.00 0.00 0.00 0.00 0.00 0.01 0.01 0.00 0.00 0.00 0.00 0.00 0.00 0.00 0.00 0.00 0.00 0.00 0.00 0.00 0.00 0.00 0.00 0.00 0.00 0.00 0.00 0.00 0.00 0.00 0.00 0.00 0.00 0.00
0.01 0.00 0.00 0.00 0.00 0.00 0.00 0.00 0.01 0.01 0.02 0.01 0.01 0.01 0.00 0.00 0.00 0.01 0.01 0.00 0.00 0.00 0.00 0.00 0.00 0.00 0.00 0.00 0.00 0.00 0.00 0.00 0.00 0.00 0.00 0.00 0.00 0.00 0.00 0.00 0.00 0.00 0.00 0.00 0.01 0.00 0.00
0.01 0.01 0.01 0.01 0.01 0.01 0.00 0.00 0.00 0.01 0.01 0.02 0.01 0.01 0.00 0.00 0.00 0.01 0.00 0.00 0.00 0.00 0.00 0.00 0.00 0.00 0.00 0.00 0.00 0.01 0.01 0.01 0.00 0.00 0.00 0.00 0.00 0.00 0.00 0.00 0.00 0.00 0.00 0.00 0.01 0.00 0.01
0.00 0.00 0.01 0.01 0.01 0.01 0.01 0.01 0.00 0.00 0.01 0.01 0.01 0.00 0.00 0.00 0.02 0.00 0.00 0.00 0.00 0.00 0.00 0.00 0.00 0.00 0.00 0.00 0.00 0.01 0.01 0.00 0.00 0.00 0.01 0.01 0.01 0.00 0.00 0.00 0.00 0.00 0.00 0.00 0.01 0.01 0.01
0.00 0.00 0.00 0.00 0.00 0.01 0.01 0.01 0.00 0.00 0.01 0.01 0.00 0.00 0.00 0.03 0.01 0.00 0.00 0.00 0.00 0.00 0.00 0.00 0.00 0.00 0.00 0.00 0.00 0.00 0.01 0.01 0.00 0.00 0.01 0.01 0.02 0.00 0.00 0.00 0.00 0.00 0.00 0.01 0.02 0.01 0.01
0.00 0.00 0.00 0.00 0.00 0.00 0.00 0.00 0.01 0.01 0.01 0.00 0.00 0.00 0.00 0.02 0.01 0.00 0.00 0.00 0.00 0.00 0.00 0.01 0.00 0.00 0.00 0.00 0.00 0.00 0.00 0.00 0.01 0.00 0.01 0.01 0.01 0.01 0.00 0.00 0.00 0.00 0.00 0.01 0.01 0.02 0.01
0.00 0.00 0.00 0.00 0.00 0.00 0.01 0.01 0.01 0.01 0.02 0.00 0.00 0.00 0.00 0.01 0.01 0.00 0.01 0.00 0.00 0.00 0.00 0.01 0.00 0.00 0.00 0.00 0.00 0.00 0.00 0.00 0.00 0.00 0.00 0.01 0.00 0.00 0.00 0.00 0.00 0.00 0.00 0.00 0.01 0.01 0.00
0.00 0.00 0.00 0.01 0.01 0.01 0.01 0.01 0.02 0.03 0.03 0.02 0.00 0.00 0.00 0.00 0.00 0.00 0.00 0.00 0.00 0.00 0.01 0.00 0.01 0.01 0.01 0.00 0.00 0.00 0.00 0.00 0.00 0.00 0.01 0.01 0.01 0.00 0.00 0.00 0.00 0.00 0.00 0.00 0.00 0.00 0.00
0.01 0.01 0.01 0.01 0.02 0.01 0.00 0.01 0.03 0.04 0.06 0.03 0.00 0.00 0.00 0.00 0.00 0.00 0.00 0.00 0.00 0.00 0.00 0.00 0.00 0.00 0.00 0.00 0.00 0.00 0.00 0.00 0.00 0.00 0.00 0.01 0.01 0.00 0.00 0.00 0.00 0.00 0.00 0.00 0.00 0.00 0.00
0.01 0.02 0.02 0.02 0.02 0.02 0.02 0.01 0.02 0.04 0.04 0.01 0.00 0.00 0.00 0.00 0.00 0.00 0.00 0.00 0.00 0.00 0.00 0.00 0.00 0.00 0.00 0.00 0.00 0.00 0.00 0.00 0.00 0.00 0.00 0.00 0.00 0.00 0.00 0.00 0.00 0.00 0.00 0.00 0.00 0.00 0.00
0.02 0.03 0.04 0.04 0.02 0.01 0.02 0.02 0.03 0.04 0.03 0.00 0.00 0.00 0.00 0.00 0.00 0.00 0.00 0.00 0.00 0.00 0.00 0.00 0.00 0.00 0.00 0.00 0.00 0.00 0.00 0.00 0.00 0.00 0.00 0.00 0.00 0.00 0.00 0.00 0.00 0.00 0.00 0.00 0.00 0.00 0.00
0.02 0.02 0.03 0.04 0.03 0.01 0.01 0.02 0.03 0.05 0.03 0.00 0.00 0.00 0.00 0.00 0.00 0.00 0.00 0.00 0.00 0.00 0.00 0.00 0.00 0.00 0.00 0.01 0.01 0.01 0.00 0.00 0.00 0.00 0.00 0.00 0.00 0.00 0.00 0.00 0.00 0.00 0.00 0.00 0.00 0.00 0.00
0.03 0.02 0.03 0.02 0.03 0.01 0.01 0.03 0.04 0.04 0.04 0.00 0.00 0.00 0.00 0.00 0.00 0.00 0.00 0.00 0.00 0.00 0.00 0.00 0.00 0.00 0.00 0.00 0.01 0.01 0.00 0.01 0.01 0.00 0.00 0.01 0.00 0.00 0.00 0.00 0.00 0.00 0.00 0.00 0.00 0.00 0.00
0.03 0.04 0.04 0.03 0.03 0.01 0.01 0.03 0.04 0.04 0.04 0.00 0.00 0.00 0.00 0.00 0.00 0.00 0.00 0.00 0.00 0.00 0.00 0.00 0.00 0.00 0.00 0.00 0.00 0.01 0.01 0.00 0.01 0.01 0.01 0.01 0.00 0.00 0.00 0.00 0.00 0.00 0.00 0.00 0.00 0.00 0.00
0.01 0.02 0.03 0.05 0.03 0.01 0.01 0.03 0.03 0.04 0.04 0.01 0.00 0.00 0.00 0.00 0.00 0.00 0.00 0.00 0.00 0.00 0.00 0.00 0.00 0.00 0.00 0.00 0.00 0.00 0.00 0.00 0.00 0.00 0.01 0.01 0.00 0.00 0.00 0.00 0.00 0.00 0.00 0.00 0.00 0.00 0.00
0.02 0.02 0.03 0.02 0.02 0.01 0.01 0.03 0.04 0.04 0.03 0.01 0.00 0.00 0.00 0.00 0.00 0.00 0.00 0.00 0.00 0.00 0.00 0.00 0.00 0.00 0.00 0.00 0.00 0.00 0.00 0.00 0.00 0.00 0.00 0.01 0.00 0.00 0.00 0.00 0.00 0.00 0.00 0.00 0.00 0.00 0.00
MSLP
1015.41 1015.27 1015.40 1015.28 1015.25 1015.23 1015.34 1015.29 1015.17 1015.13 1015.05 1015.45 1015.20 1015.33 1015.18 1015.07 1015.21 1015.17 1015.04 1015.01 1014.97 1014.92 1014.86 1014.68 1014.49 1014.35 1013.80 1012.86 1010.30 1008.24 1008.23 1008.41 1008.43 1008.39 1008.57 1008.88 1009.05 1009.08 1008.81 1008.35 1008.19 1008.08 1007.58 1006.92 1006.48 1006.44 1006.24
1014.62 1014.67 1014.70 1014.60 1014.58 1014.60 1014.58 1014.60 1014.46 1014.46 1014.47 1014.63 1014.45 1014.37 1014.30 1014.44 1014.55 1014.61 1014.55 1014.48 1014.36 1014.41 1014.52 1014.43 1014.21 1014.26 1014.08 1011.86 1008.56 1008.18 1008.21 1008.26 1008.32 1008.36 1008.19 1008.41 1008.53 1008.64 1008.50 1008.22 1008.08 1007.48 1007.28 1006.88 1006.32 1006.08 1005.97
1013.81 1013.85 1013.75 1013.75 1013.81 1013.75 1013.78 1013.81 1013.78 1013.61 1013.79 1013.78 1013.77 1013.74 1013.58 1013.63 1013.88 1014.00 1013.92 1013.93 1013.90 1013.88 1014.00 1014.09 1013.92 1013.75 1012.92 1009.61 1008.42 1007.73 1007.85 1007.58 1007.65 1007.96 1007.82 1007.89 1008.09 1008.67 1008.18 1008.03 1007.24 1007.29 1007.45 1006.74 1005.88 1005.57 1005.30
1013.09 1013.08 1012.91 1012.99 1012.99 1012.80 1012.87 1013.00 1013.08 1012.99 1012.94 1012.94 1012.83 1012.83 1012.83 1012.91 1012.94 1013.06 1013.22 1013.21 1013.34 1013.42 1013.54 1013.63 1013.57 1013.26 1010.67 1008.66 1008.12 1007.38 1007.39 1006.98 1006.59 1007.01 1007.41 1007.37 1007.56 1008.04 1008.31 1008.01 1007.66 1007.60 1007.34 1006.75 1005.56 1005.26 1004.92
1012.43 1012.31 1012.26 1012.16 1012.20 1012.24 1012.18 1012.11 1012.27 1012.32 1012.28 1012.18 1012.09 1012.12 1012.06 1012.01 1012.23 1012.10 1012.42 1012.67 1012.73 1013.04 1012.98 1013.05 1013.33 1012.98 1009.30 1007.93 1007.51 1006.24 1006.60 1006.74 1006.17 1006.32 1006.76 1006.98 1007.46 1007.81 1007.96 1008.43 1008.49 1007.84 1006.86 1006.58 1005.70 1004.75 1004.73
1012.14 1011.97 1011.77 1011.72 1011.61 1011.70 1011.61 1011.44 1011.57 1011.70 1011.66 1011.53 1011.42 1011.52 1011.53 1011.57 1011.66 1011.74 1011.95 1012.18 1012.03 1012.23 1012.44 1012.51 1012.08 1012.43 1009.23 1006.84 1005.79 1005.43 1005.63 1005.92 1005.88 1005.88 1006.73 1007.21 1007.35 1007.51 1007.97 1008.32 1007.15 1007.00 1007.09 1006.47 1006.11 1005.06 1004.79
1012.36 1012.26 1011.99 1011.85 1011.69 1011.65 1011.55 1011.34 1011.16 1011.17 1011.15 1011.12 1010.99 1010.90 1011.03 1011.10 1011.24 1011.43 1011.97 1012.08 1012.32 1011.85 1010.86 1009.76 1008.84 1007.94 1006.17 1005.73 1005.21 1004.93 1004.98 1005.37 1005.36 1005.38 1006.36 1006.92 1007.06 1006.37 1006.11 1005.85 1005.63 1006.41 1006.53 1005.98 1005.67 1005.39 1004.94
1012.35 1012.31 1012.21 1012.05 1011.98 1011.71 1011.54 1011.39 1011.02 1011.08 1010.90 1010.86 1010.55 1011.01 1010.79 1010.75 1010.87 1011.28 1011.53 1011.39 1010.76 1010.70 1008.98 1008.11 1007.25 1005.99 1005.36 1005.54 1004.06 1003.82 1004.51 1005.32 1005.37 1005.03 1005.50 1006.33 1004.47 1004.88 1005.12 1005.44 1005.86 1005.89 1005.62 1005.17 1005.09 1005.12 1004.97
1012.22 1012.35 1012.22 1011.92 1011.92 1011.78 1011.54 1011.40 1011.11 1011.02 1010.87 1010.84 1010.80 1011.12 1011.17 1010.81 1011.13 1011.22 1010.99 1010.34 1010.16 1010.48 1009.55 1005.65 1005.57 1004.61 1004.49 1004.95 1002.29 1002.48 1004.02 1003.98 1004.17 1004.32 1004.96 1004.03 1001.21 1003.47 1004.32 1004.57 1005.05 1004.55 1004.31 1004.85 1004.81 1004.92 1004.59
1012.05 1012.06 1012.06 1011.90 1011.82 1011.69 1011.50 1011.38 1011.33 1011.01 1010.77 1010.83 1010.91 1011.26 1011.52 1011.42 1011.67 1011.12 1010.78 1009.86 1009.96 1010.41 1009.53 1005.26 1004.36 1002.26 1002.72 1003.36 1002.58 1001.10 1001.72 1003.17 1003.72 1002.94 1004.33 1003.98 1002.28 1002.81 1003.38 1003.08 1004.17 1003.58 1003.96 1004.06 1004.41 1005.09 1004.90
1012.20 1011.93 1011.89 1011.85 1011.72 1011.29 1011.11 1011.23 1011.48 1011.05 1011.10 1010.75 1010.73 1010.98 1011.19 1011.48 1011.16 1010.86 1010.29 1009.91 1009.99 1010.37 1008.36 1003.96 1002.79 1001.59 1002.15 1002.60 1001.49 1000.57 1000.45 1002.35 1002.31 1003.01 1003.47 1001.17 1001.72 1001.99 1002.18 1001.73 1002.87 1002.73 1003.56 1003.65 1003.97 1004.36 1004.89
1012.08 1011.97 1011.83 1011.84 1011.60 1011.17 1010.76 1010.69 1011.11 1011.07 1011.28 1011.21 1010.69 1010.91 1010.87 1011.26 1011.31 1010.66 1010.09 1010.07 1010.04 1009.51 1005.97 1003.38 1001.85 1001.83 1002.78 1002.27 1001.57 1001.42 1001.23 1001.43 1001.83 1002.69 1002.44 1001.66 1001.66 1001.29 1000.80 1001.44 1001.67 1002.60 1003.37 1003.82 1003.99 1004.06 1004.04
1011.82 1011.91 1011.80 1011.80 1011.56 1011.17 1011.00 1010.59 1010.50 1010.67 1010.96 1010.95 1010.88 1011.00 1011.07 1010.78 1010.69 1010.21 1010.09 1010.11 1009.18 1006.67 1004.97 1002.74 1001.64 1001.86 1001.57 1001.34 1001.50 1001.24 1001.59 1000.94 1000.97 1001.76 1001.77 1001.13 1000.29 1000.70 1000.80 1001.11 1001.49 1002.34 1003.39 1003.57 1003.71 1003.45 1002.00
1011.32 1011.32 1011.38 1011.49 1011.32 1011.11 1010.95 1011.03 1010.90 1010.62 1010.59 1010.66 1010.55 1010.59 1010.59 1010.57 1010.51 1010.50 1009.90 1009.44 1007.41 1005.40 1003.59 1002.06 1001.65 1001.69 1001.64 1000.73 1000.69 1000.90 1001.30 1000.64 1000.66 1000.21 1000.16 1000.38 999.55 999.23 999.26 999.41 999.86 1000.59 1001.61 1001.70 1001.61 1002.11 1001.75
1010.90 1010.85 1010.89 1010.85 1010.82 1010.34 1010.42 1010.83 1010.87 1010.62 1010.58 1010.49 1010.15 1009.94 1009.91 1009.34 1009.77 1010.54 1009.93 1007.32 1005.74 1005.35 1004.25 1003.17 1002.43 1002.06 1001.68 1000.86 1000.70 1000.62 1000.45 999.90 999.17 999.90 999.68 999.42 999.21 998.24 998.26 998.44 999.50 999.63 1000.61 999.03 1001.17 1001.63 1002.63
1010.52 1010.35 1010.40 1010.18 1010.20 1009.87 1009.93 1010.17 1010.39 1010.47 1010.68 1010.21 1010.01 1009.47 1009.05 1008.76 1009.46 1010.17 1009.38 1007.24 1006.62 1005.79 1004.92 1004.02 1003.46 1002.19 1001.61 1001.43 1001.03 1000.57 1000.04 999.13 998.97 998.81 999.33 998.96 998.94 997.92 998.15 998.74 998.60 998.67 999.38 1000.43 1001.24 1001.86 1001.75
1010.14 1009.88 1009.92 1009.47 1009.53 1009.48 1009.57 1009.77 1009.73 1010.15 1010.26 1010.37 1010.64 1009.38 1009.07 1008.77 1009.04 1009.20 1008.01 1007.48 1007.24 1006.49 1006.15 1005.66 1004.66 1003.83 1002.75 1002.15 1001.42 1000.89 999.93 999.69 999.97 999.25 999.53 999.28 999.38 998.51 998.53 998.34 998.67 999.39 999.57 999.88 1000.44 1001.54 1001.22
1009.65 1009.23 1009.19 1008.96 1008.94 1009.06 1009.13 1009.32 1009.66 1009.71 1009.94 1010.21 1010.42 1009.62 1009.00 1008.80 1009.04 1008.65 1008.17 1007.78 1007.48 1006.95 1006.55 1006.66 1005.64 1005.00 1004.24 1003.63 1002.78 1001.42 1000.92 1000.63 1000.71 1000.39 1000.33 1000.26 999.78 998.80 998.61 999.45 999.47 999.57 999.47 999.56 1000.06 1000.75 1001.45
1008.50 1008.63 1008.26 1008.41 1008.31 1008.19 1008.35 1008.91 1009.06 1009.14 1009.41 1010.41 1010.01 1009.28 1008.55 1008.60 1008.13 1008.26 1008.32 1008.03 1007.81 1007.36 1007.07 1007.17 1006.58 1006.40 1005.80 1005.34 1004.33 1002.52 1002.19 1001.41 1000.65 1001.16 1001.47 1001.67 1000.37 999.02 999.49 1000.28 1000.58 1000.39 1000.26 1000.79 1000.84 1000.39 1001.11
1007.73 1007.60 1007.42 1007.35 1007.51 1007.41 1007.58 1008.20 1008.29 1008.72 1009.21 1010.16 1010.39 1009.33 1008.67 1008.19 1008.17 1008.45 1008.49 1008.12 1007.88 1007.62 1007.48 1007.21 1007.03 1006.96 1006.47 1005.73 1005.29 1004.35 1003.64 1002.41 1000.89 1000.25 1000.23 1001.05 1001.48 1000.72 1000.68 1000.72 1000.65 1001.24 1000.94 1001.21 1002.01 1001.78 1000.46
1006.55 1006.37 1006.34 1006.40 1006.44 1006.62 1007.08 1007.42 1007.62 1007.93 1008.50 1009.62 1009.72 1008.66 1008.01 1007.86 1008.02 1008.16 1008.58 1008.13 1007.68 1007.61 1007.95 1007.62 1007.32 1007.21 1007.49 1006.70 1005.96 1004.77 1004.16 1003.25 1002.01 1000.96 1000.80 1000.57 1000.76 1000.90 1000.83 1000.71 1000.86 1001.20 1001.38 1001.76 1001.96 1001.68 1001.79
1005.71 1005.55 1005.38 1005.19 1005.11 1005.55 1005.98 1006.39 1006.74 1007.06 1007.66 1008.24 1008.57 1008.47 1008.22 1008.09 1007.97 1008.12 1008.10 1008.04 1007.90 1007.84 1008.08 1007.86 1007.79 1007.19 1007.44 1007.17 1006.85 1005.87 1005.73 1004.68 1003.58 1002.65 1001.27 1000.02 1000.18 1000.38 1000.22 1000.16 1000.79 1001.31 1001.70 1001.36 1001.72 1002.33 1002.08
1004.57 1004.46 1004.29 1003.96 1003.81 1004.32 1004.83 1005.30 1005.88 1006.36 1006.91 1007.11 1007.98 1007.91 1008.33 1008.17 1008.21 1008.07 1008.20 1008.09 1008.09 1007.99 1007.74 1007.55 1007.73 1007.71 1007.19 1006.46 1005.91 1005.28 1005.18 1004.78 1004.68 1003.95 1002.98 1001.45 1000.02 1000.19 1000.00 1000.09 1000.90 1000.59 999.82 1000.35 1000.20 1000.28 1000.22
1003.21 1003.20 1003.17 1003.02 1003.07 1003.42 1003.92 1004.39 1005.00 1005.48 1006.11 1006.94 1007.12 1007.76 1008.37 1008.51 1008.39 1008.39 1008.46 1008.32 1008.13 1008.10 1008.11 1007.58 1007.44 1007.27 1006.67 1006.29 1005.82 1005.01 1004.43 1003.77 1003.74 1003.24 1003.04 1002.21 1001.52 1000.47 1000.00 1000.22 999.70 998.14 997.76 998.05 998.92 999.11 999.76
1001.70 1001.88 1002.07 1002.21 1002.15 1002.72 1003.21 1003.79 1004.45 1004.80 1005.39 1006.28 1006.82 1007.21 1008.00 1008.37 1008.31 1008.47 1008.51 1008.41 1008.15 1007.78 1007.59 1007.30 1006.85 1006.81 1006.52 1006.26 1005.76 1004.92 1003.74 1003.10 1002.17 1001.96 1001.76 1002.15 1001.75 1000.92 1000.38 999.92 999.32 998.48 998.14 998.21 998.53 998.87 999.16
1000.25 1000.60 1000.98 1001.58 1001.53 1001.99 1002.56 1003.00 1003.60 1004.01 1004.67 1005.66 1006.34 1006.93 1007.59 1008.26 1008.23 1007.90 1008.21 1008.09 1007.94 1007.65 1007.31 1007.17 1006.74 1006.50 1006.77 1006.15 1005.19 1004.40 1003.44 1002.65 1002.05 1000.94 1000.52 1001.23 1001.43 1001.31 1000.55 999.82 999.33 998.15 998.01 997.56 998.16 998.84 998.70
999.08 999.63 1000.32 1000.64 1000.78 1001.51 1002.03 1002.47 1002.99 1003.40 1004.18 1005.00 1005.92 1006.54 1007.10 1007.98 1007.82 1007.74 1007.80 1007.93 1007.96 1007.66 1007.39 1006.96 1006.71 1006.57 1006.67 1006.24 1005.51 1004.64 1003.52 1003.26 1002.65 1001.70 1001.17 1001.22 1000.97 1000.79 1000.46 999.94 999.79 999.09 998.58 998.38 998.43 999.68 999.19
998.66 999.29 999.64 1000.03 1000.52 1001.12 1001.68 1002.15 1002.68 1003.09 1003.88 1004.63 1005.47 1006.13 1006.53 1007.53 1007.53 1007.32 1007.25 1007.34 1007.30 1007.45 1007.32 1007.11 1007.06 1006.87 1006.95 1006.93 1006.49 1005.66 1004.87 1004.34 1003.56 1002.66 1001.93 1001.36 1001.02 1000.80 1000.88 1000.82 1000.69 1000.01 999.21 999.82 1000.07 999.88 999.55
998.85 999.06 999.44 999.86 1000.33 1000.97 1001.46 1001.95 1002.46 1002.92 1003.71 1004.19 1005.58 1006.16 1006.62 1007.23 1007.46 1006.94 1006.57 1006.22 1006.26 1006.39 1006.83 1006.98 1007.10 1006.91 1006.88 1007.18 1007.19 1006.77 1006.07 1005.11 1004.59 1003.55 1002.61 1002.57 1002.59 1002.08 1001.61 1001.55 1001.53 1001.05 1000.98 1000.90 1000.62 1000.51 1000.27
Thickness
5646 5649 5648 5649 5650 5650 5649 5649 5651 5652 5652 5648 5650 5649 5651 5652 5649 5649 5650 5649 5648 5646 5644 5645 5642 5643 5651 5660 5675 5688 5693 5693 5692 5691 5686 5681 5677 5673 5670 5679 5682 5675 5685 5694 5700 5697 5696
5641 5641 5642 5643 5644 5643 5644 5642 5644 5644 5645 5642 5644 5646 5646 5646 5644 5643 5643 5643 5642 5640 5638 5637 5636 5637 5640 5658 5687 5686 5685 5689 5686 5683 5682 5678 5674 5672 5673 5673 5673 5684 5682 5687 5694 5693 5691
5634 5635 5636 5636 5635 5637 5637 5637 5637 5638 5637 5637 5637 5639 5640 5640 5637 5637 5638 5636 5636 5634 5634 5630 5631 5633 5640 5673 5682 5683 5681 5689 5685 5679 5679 5677 5675 5663 5671 5671 5682 5679 5665 5679 5694 5692 5689
5626 5626 5628 5628 5629 5630 5631 5630 5629 5630 5631 5632 5632 5632 5632 5632 5632 5633 5631 5630 5628 5628 5628 5627 5626 5628 5646 5677 5677 5680 5675 5685 5686 5683 5678 5677 5673 5665 5661 5668 5667 5662 5663 5661 5692 5691 5691
5619 5620 5620 5621 5622 5622 5624 5625 5623 5623 5624 5626 5628 5626 5627 5627 5625 5626 5625 5622 5622 5619 5620 5621 5621 5622 5649 5670 5670 5681 5678 5675 5680 5680 5676 5675 5665 5655 5657 5643 5639 5649 5652 5653 5670 5689 5681
5609 5610 5612 5612 5613 5613 5614 5616 5615 5615 5616 5618 5620 5620 5620 5619 5617 5617 5617 5615 5615 5613 5614 5613 5620 5616 5642 5656 5677 5680 5678 5675 5673 5673 5661 5657 5654 5642 5635 5633 5638 5649 5636 5642 5649 5676 5674
5592 5593 5596 5596 5598 5599 5600 5603 5605 5606 5607 5607 5608 5610 5610 5609 5608 5606 5603 5603 5603 5608 5615 5625 5631 5640 5658 5660 5667 5671 5672 5667 5666 5661 5647 5647 5634 5634 5651 5659 5662 5646 5640 5642 5650 5661 5657
5576 5577 5578 5579 5580 5583 5585 5586 5590 5591 5594 5595 5597 5593 5595 5598 5598 5592 5589 5594 5601 5598 5613 5621 5634 5642 5653 5648 5656 5668 5665 5645 5646 5645 5648 5636 5642 5659 5657 5651 5643 5638 5639 5643 5649 5653 5648
5560 5558 5560 5564 5564 5566 5568 5570 5572 5574 5575 5578 5579 5576 5576 5581 5580 5580 5582 5588 5586 5580 5584 5632 5633 5642 5643 5637 5659 5660 5650 5649 5642 5642 5638 5645 5680 5662 5644 5641 5634 5640 5639 5635 5637 5641 5642
5543 5542 5542 5544 5544 5546 5549 5552 5553 5556 5559 5559 5559 5556 5555 5559 5560 5564 5567 5573 5569 5564 5563 5621 5618 5642 5642 5638 5643 5664 5660 5641 5633 5642 5630 5629 5659 5649 5637 5639 5628 5629 5638 5636 5628 5614 5606
5521 5524 5524 5524 5525 5528 5531 5530 5529 5536 5535 5540 5541 5540 5539 5537 5544 5552 5556 5555 5552 5547 5552 5608 5620 5636 5630 5628 5640 5649 5655 5633 5629 5624 5624 5646 5639 5635 5631 5638 5631 5629 5628 5624 5618 5608 5601
5500 5501 5502 5502 5505 5508 5513 5513 5510 5511 5511 5514 5521 5520 5522 5521 5523 5532 5535 5535 5533 5534 5544 5582 5611 5608 5606 5613 5618 5622 5624 5626 5624 5612 5619 5627 5631 5631 5637 5635 5631 5625 5608 5607 5608 5605 5585
5479 5478 5480 5480 5481 5486 5488 5491 5492 5491 5491 5493 5495 5496 5496 5503 5513 5516 5517 5517 5518 5525 5557 5580 5592 5593 5599 5604 5602 5605 5601 5605 5609 5601 5604 5616 5625 5622 5624 5615 5613 5604 5591 5577 5578 5576 5596
5458 5458 5458 5457 5459 5462 5467 5466 5467 5469 5471 5471 5474 5475 5478 5485 5489 5493 5500 5503 5506 5518 5554 5575 5581 5576 5576 5598 5597 5591 5588 5591 5598 5602 5595 5596 5607 5620 5627 5619 5612 5604 5598 5590 5585 5582 5597
5436 5435 5436 5435 5436 5444 5447 5443 5444 5446 5447 5451 5453 5459 5464 5481 5477 5471 5477 5492 5509 5512 5537 5544 5556 5549 5555 5576 5578 5580 5578 5590 5602 5597 5593 5584 5594 5617 5618 5619 5607 5607 5582 5629 5588 5587 5566
5411 5411 5411 5413 5416 5420 5422 5422 5419 5421 5420 5428 5431 5436 5452 5464 5456 5454 5451 5472 5473 5494 5510 5520 5518 5540 5546 5554 5555 5564 5569 5586 5592 5594 5594 5590 5579 5606 5605 5602 5605 5601 5603 5577 5577 5571 5577
5396 5397 5396 5398 5397 5396 5398 5400 5404 5402 5401 5401 5401 5407 5425 5435 5435 5436 5443 5450 5457 5470 5481 5484 5489 5503 5524 5531 5539 5549 5554 5561 5563 5575 5575 5578 5572 5590 5588 5588 5586 5583 5581 5581 5580 5564 5564
5386 5388 5385 5387 5386 5385 5385 5387 5386 5387 5381 5385 5379 5387 5398 5409 5412 5410 5428 5435 5442 5449 5459 5455 5467 5477 5488 5497 5500 5524 5534 5540 5534 5540 5551 5556 5556 5566 5578 5561 5566 5564 5575 5583 5571 5573 5561
5378 5375 5375 5372 5373 5374 5374 5370 5371 5373 5371 5366 5366 5380 5387 5392 5402 5405 5409 5419 5417 5424 5433 5436 5443 5441 5446 5455 5468 5488 5494 5517 5523 5520 5517 5530 5533 5552 5543 5537 5538 5545 5552 5547 5541 5548 5557
5364 5364 5364 5364 5363 5363 5363 5360 5360 5358 5354 5352 5348 5365 5374 5380 5383 5390 5392 5395 5404 5403 5412 5420 5421 5423 5433 5446 5447 5444 5454 5489 5506 5519 5519 5514 5504 5514 5531 5533 5522 5523 5528 5527 5524 5538 5545
5357 5356 5353 5352 5353 5353 5351 5350 5350 5349 5344 5337 5337 5355 5365 5372 5372 5382 5383 5383 5395 5396 5394 5400 5408 5408 5397 5409 5414 5439 5448 5453 5479 5496 5496 5495 5498 5500 5497 5497 5500 5506 5517 5517 5516 5516 5520
5341 5339 5339 5340 5341 5340 5341 5342 5343 5341 5337 5335 5336 5344 5349 5361 5365 5366 5370 5371 5376 5379 5373 5383 5385 5400 5387 5388 5392 5404 5410 5427 5442 5452 5477 5487 5485 5485 5488 5492 5489 5491 5493 5497 5496 5490 5493
5325 5323 5323 5326 5328 5325 5327 5330 5331 5331 5329 5329 5328 5336 5338 5344 5353 5354 5349 5356 5357 5363 5367 5374 5369 5359 5367 5389 5395 5404 5405 5412 5418 5424 5445 5460 5476 5476 5484 5486 5474 5472 5492 5489 5503 5504 5507
5318 5316 5315 5315 5315 5315 5317 5320 5322 5322 5322 5321 5328 5329 5328 5323 5328 5341 5341 5347 5346 5349 5337 5361 5366 5361 5374 5377 5381 5389 5400 5408 5410 5424 5426 5442 5449 5459 5472 5470 5468 5501 5510 5509 5499 5506 5504
5314 5311 5308 5306 5310 5310 5311 5313 5315 5319 5319 5319 5322 5326 5321 5320 5329 5330 5327 5329 5337 5341 5344 5352 5357 5354 5358 5364 5371 5370 5391 5404 5412 5421 5426 5428 5436 5452 5444 5460 5470 5481 5489 5490 5486 5489 5493
5309 5306 5304 5301 5308 5308 5308 5311 5314 5319 5319 5318 5321 5322 5320 5308 5321 5330 5315 5323 5334 5335 5339 5336 5348 5350 5348 5356 5368 5377 5399 5414 5418 5430 5432 5425 5421 5433 5442 5450 5449 5478 5476 5484 5485 5471 5478
5307 5303 5302 5303 5307 5306 5307 5309 5314 5319 5319 5320 5321 5321 5318 5308 5318 5324 5312 5318 5324 5331 5330 5340 5345 5347 5344 5350 5358 5376 5394 5386 5402 5412 5420 5421 5421 5423 5432 5437 5435 5451 5459 5468 5464 5460 5462
5298 5295 5300 5304 5305 5305 5306 5309 5315 5317 5319 5322 5322 5321 5318 5306 5315 5323 5326 5321 5324 5326 5323 5334 5330 5338 5338 5337 5342 5356 5364 5369 5378 5393 5402 5416 5423 5421 5425 5429 5433 5426 5448 5448 5436 5444 5455
5298 5300 5302 5304 5305 5304 5305 5312 5314 5318 5319 5325 5319 5317 5316 5313 5314 5322 5327 5331 5333 5335 5331 5329 5331 5338 5336 5331 5331 5331 5349 5359 5362 5366 5390 5399 5390 5396 5405 5412 5402 5407 5413 5421 5423 5429 5438